User: anonymous   Login
Location: Dannhausen
(51.8650°N, 10.1026°E)
Time: 02:44:38
(UTC+00:00)
Language:

Cosmos 2233 Rocket - Orbit

View from above orbital plane
View from above orbital plane
View from above satellite
View from above satellite

Ground track
Ground track

The orbit data is extracted from the following two-line orbital elements,

1 22488U 93008B   21127.45438752  .00000132  00000-0  11622-3 0  9996
2 22488  82.9401 101.4913 0024707 202.1327 273.9547 13.77730727419539
Epoch (UTC): 07 May 2021 10:54:19
Eccentricity: 0.0024707
inclination: 82.9401°
perigee height: 954 km
apogee height: 990 km
right ascension of ascending node: 101.4913°
argument of perigee: 202.1327°
revolutions per day: 13.77730727
mean anomaly at epoch: 273.9547°
orbit number at epoch: 41953

The dashed part of the orbit path shows where the satellite is in the earth's shadow,  

DLR